GW7947 Weather Reports


Display with metric or nautical units.
time (UTC)temp
F
wind
direction
speed
MPH
gust
MPH
rain 1hr
in
rain 24hr
in
rain mn
in
humidity
%
barometer
mb
20260906183024 87 320 1.0 9.0 0.00 0.00 0.00 53 1014.8
20260906181504 93 279 2.0 6.0 0.00 0.00 0.00 42 1014.6
20260906180005 92 309 2.0 3.0 0.00 0.00 0.00 44 1014.5
20260906174513 94 53 0.0 3.0 0.00 0.00 0.00 44 1014.6
20260906173016 97 46 2.0 7.0 0.00 0.00 0.00 38 1014.9
20260906171523 97 38 2.0 10.0 0.00 0.00 0.00 37 1015.2
20260906170005 96 96 4.0 6.0 0.00 0.00 0.00 38 1015.6
20260906164507 94 54 4.0 5.0 0.00 0.00 0.00 42 1015.8
20260906163012 94 296 0.0 1.0 0.00 0.00 0.00 45 1015.9
20260906161517 94 77 1.0 6.0 0.00 0.00 0.00 42 1015.9
20260906160024 93 70 3.0 6.0 0.00 0.00 0.00 44 1015.9
20260906154506 90 59 0.0 2.0 0.00 0.00 0.00 53 1015.8
20260906153015 87 58 0.0 1.0 0.00 0.00 0.00 62 1015.8
20260906151514 84 59 1.0 2.0 0.00 0.00 0.00 67 1015.8
20260906150018 81 58 1.0 1.0 0.00 0.00 0.00 76 1015.9
20260906144525 78 58 0.0 1.0 0.00 0.00 0.00 80 1015.8
20260906143008 77 58 1.0 1.0 0.00 0.00 0.00 82 1016.0
20260906141512 76 68 0.0 1.0 0.00 0.00 0.00 83 1016.1
20260906140015 74 67 0.0 1.0 0.00 0.00 0.00 87 1016.0
20260906134523 71 68 0.0 0.0 0.00 0.00 0.00 90 1016.0
20260906133026 70 68 0.0 0.0 0.00 0.00 0.00 91 1016.0
20260906131515 69 67 0.0 0.0 0.00 0.00 0.00 91 1016.0
20260906130010 69 68 0.0 0.0 0.00 0.00 0.00 92 1015.9
20260906124516 68 67 0.0 0.0 0.00 0.00 0.00 92 1015.9
20260906123023 68 67 0.0 0.0 0.00 0.00 0.00 93 1015.8
20260906121528 68 67 0.0 1.0 0.00 0.00 0.00 92 1015.7
20260906120008 68 68 0.0 1.0 0.00 0.00 0.00 93 1015.7
20260906114512 68 68 0.0 1.0 0.00 0.00 0.00 92 1015.6
20260906113016 68 67 0.0 1.0 0.00 0.00 0.00 92 1015.5
20260906111525 68 68 0.0 0.0 0.00 0.00 0.00 92 1015.2
20260906110030 69 67 0.0 0.0 0.00 0.00 0.00 92 1015.1
20260906104510 69 68 0.0 1.0 0.00 0.00 0.00 91 1015.1
20260906103016 69 68 0.0 1.0 0.00 0.00 0.00 91 1015.1
20260906101523 69 68 0.0 1.0 0.00 0.00 0.00 91 1015.1
20260906100028 69 68 0.0 1.0 0.00 0.00 0.00 91 1015.0
20260906094531 69 68 0.0 1.0 0.00 0.00 0.00 91 1015.1
20260906093020 69 67 0.0 1.0 0.00 0.00 0.00 91 1015.0
20260906091518 69 68 0.0 0.0 0.00 0.00 0.00 91 1014.9
20260906090025 69 68 0.0 2.0 0.00 0.00 0.00 90 1014.6
20260906084529 69 49 0.0 1.0 0.00 0.00 0.00 91 1014.7
20260906083032 69 49 0.0 1.0 0.00 0.00 0.00 91 1014.5
20260906081520 69 49 0.0 1.0 0.00 0.00 0.00 91 1014.4
20260906080018 69 49 0.0 1.0 0.00 0.00 0.00 90 1014.4
20260906074528 69 49 0.0 1.0 0.00 0.00 0.00 91 1014.5
20260906073030 69 49 0.0 1.0 0.00 0.00 0.00 91 1014.5
20260906071532 70 49 0.0 0.0 0.00 0.00 0.00 90 1014.6
20260906070014 70 49 0.0 0.0 0.00 0.00 0.00 90 1014.6
20260906064531 70 49 0.0 0.0 0.00 0.00 0.00 89 1014.6
20260906063027 70 49 0.0 1.0 0.00 0.00 0.00 89 1014.7
20260906061536 70 49 0.0 0.0 0.00 0.00 0.00 89 1014.9
20260906060037 71 49 0.0 0.0 0.00 0.00 0.00 88 1014.8
20260906054518 71 49 0.0 1.0 0.00 0.00 0.00 88 1014.6
20260906053026 71 49 0.0 0.0 0.00 0.00 0.00 88 1014.6
20260906051529 71 49 0.0 0.0 0.00 0.00 0.00 87 1014.5
20260906050035 72 49 0.0 1.0 0.00 0.00 0.00 86 1014.5
20260906044535 72 49 0.0 1.0 0.00 0.00 0.00 86 1014.5
20260906043019 72 49 0.0 1.0 0.00 0.00 0.00 85 1014.5
20260906041535 73 49 0.0 2.0 0.00 0.00 0.00 85 1014.5
20260906040033 73 34 0.0 1.0 0.00 0.00 0.00 85 1014.5
20260906034536 73 58 0.0 1.0 0.00 0.00 0.00 85 1014.4
20260906033018 73 59 0.0 1.0 0.00 0.00 0.00 85 1014.4
20260906031532 74 59 0.0 0.0 0.00 0.00 0.00 84 1014.4
20260906030029 74 59 0.0 1.0 0.00 0.00 0.00 84 1014.4
20260906024531 75 59 0.0 1.0 0.00 0.00 0.00 82 1014.1
20260906023037 75 59 0.0 1.0 0.00 0.00 0.00 81 1014.0
20260906021518 76 59 0.0 1.0 0.00 0.00 0.00 81 1013.8
20260906020027 76 59 0.0 1.0 0.00 0.00 0.00 79 1013.6
20260906014533 77 58 0.0 2.0 0.00 0.00 0.00 79 1013.3
20260906013031 78 68 0.0 1.0 0.00 0.00 0.00 79 1013.1
20260906011535 78 75 0.0 1.0 0.00 0.00 0.00 77 1012.8
20260906010023 79 75 0.0 1.0 0.00 0.00 0.00 75 1012.5
20260906004528 80 75 0.0 1.0 0.00 0.00 0.00 74 1012.6
20260906003030 81 75 0.0 1.0 0.00 0.00 0.00 72 1012.6
20260906001533 82 76 1.0 2.0 0.00 0.00 0.00 72 1012.5
20260906000034 83 72 1.0 2.0 0.00 0.00 0.00 70 1012.6
20260905234522 84 74 1.0 1.0 0.00 0.00 0.00 69 1012.6
20260905233004 86 75 1.0 2.0 0.00 0.00 0.00 65 1012.5
20260905231508 87 76 1.0 2.0 0.00 0.00 0.00 62 1012.5
20260905230011 88 77 1.0 2.0 0.00 0.00 0.00 62 1012.4
20260905224521 88 28 1.0 1.0 0.00 0.00 0.00 58 1012.3
20260905223025 88 23 1.0 3.0 0.00 0.00 0.00 65 1012.4
20260905221509 88 45 2.0 4.0 0.00 0.00 0.00 61 1012.5
20260905220009 89 46 5.0 8.0 0.00 0.00 0.00 57 1012.5
20260905214514 91 57 5.0 12.0 0.00 0.00 0.00 52 1012.8
20260905213031 99 19 7.0 13.0 0.00 0.00 0.00 36 1012.8
20260905211533 99 147 1.0 5.0 0.00 0.00 0.00 32 1012.8
20260905210008 99 343 0.0 5.0 0.00 0.00 0.00 33 1013.1
20260905204533 98 168 1.0 5.0 0.00 0.00 0.00 35 1013.5
20260905203016 95 26 0.0 2.0 0.00 0.00 0.00 40 1013.8
20260905201527 95 33 1.0 2.0 0.00 0.00 0.00 40 1014.0
20260905200028 97 347 2.0 4.0 0.00 0.00 0.00 36 1014.0
20260905194530 98 41 2.0 8.0 0.00 0.00 0.00 35 1014.2
20260905193035 97 146 0.0 5.0 0.00 0.00 0.00 36 1014.3
20260905191518 97 62 3.0 7.0 0.00 0.00 0.00 36 1014.6
20260905190025 95 120 0.0 3.0 0.00 0.00 0.00 39 1014.9
20260905184529 93 9 0.0 1.0 0.00 0.00 0.00 46 1015.2